Regional Weather Roundup
Issued by NWS

Home | Current Version | Previous Version | Graphics & Text | Print | Product List | Glossary On
Versions: 1 2 3 4 5 6 7 8 9 10 11 12 13 14 15 16 17 18 19 20 21 22 23 24 25 26 27 28 29 30 31 32 33 34 35 36 37 38 39 40 41 42 43 44 45 46 47 48 49 50
000
ASUS45 KSLC 201510
RWRUT

UTAH REGIONAL WEATHER ROUNDUP
NATIONAL WEATHER SERVICE SALT LAKE CITY UT
900 AM MDT WED AUG 20 2014

UTZ001>011-023>025-201600-

NORTHERN UTAH

CITY           SKY/WX    TMP DP  RH WIND       PRES   REMARKS
HILL AFB       MOSUNNY   64  55  72 S18       30.02R
LOGAN          SUNNY     65  53  65 N5        29.98R
OGDEN          MOSUNNY   66  54  65 S15G22    30.00R
PROVO AIRPORT  CLOUDY    61  57  88 E8        30.05F
SALT LAKE CITY PTSUNNY   63  56  78 S12       30.01R
VERNAL         CLOUDY    62  57  83 CALM      30.05R
WENDOVER       PTSUNNY   66  48  52 E6        29.97S
HEBER CITY     DRIZZLE   55  52  88 CALM      30.09R
WEST JORDAN    MOSUNNY   63  61  94 S15       30.04R

$$

UTZ012>022-026-027-201600-

SOUTHERN UTAH

CITY           SKY/WX    TMP DP  RH WIND       PRES   REMARKS
BRYCE CANYON   SUNNY     55  48  77 N3        30.22R
CEDAR CITY     MOSUNNY   63  53  70 S6        30.11R
MILFORD        MOSUNNY   64  54  69 S18       30.06R
MOAB/CYNLANDS  SUNNY     68  62  81 CALM      30.02R
PRICE          MOSUNNY   62  56  80 E3        30.10R
ST GEORGE      PTSUNNY   70  54  56 SE3       30.01R

$$

REGIONAL REPORTS     COLORADO/ARIZONA

CITY           SKY/WX    TMP DP  RH WIND       PRES   REMARKS
CRAIG, CO      PTSUNNY   62  57  83 CALM      30.09R
GRAND JUNCTION MOSUNNY   64  61  90 CALM      30.04R
RIFLE          PTSUNNY   64  58  80 CALM      30.08R
MONTROSE       MOSUNNY   66  58  75 SE7       30.10F
CORTEZ         SUNNY     66  56  70 N5        30.14S
PAGE, AZ       SUNNY     71  59  65 CALM      30.06R
GRAND CANYON   MOSUNNY   59  54  83 SW9       30.24R
KINGMAN        SUNNY     68  59  73 SW6       30.03R
FLAGSTAFF      MOSUNNY   59  51  75 SW7       30.27R

$$

REGIONAL REPORTS    NEVADA/IDAHO/WYOMING

CITY           SKY/WX    TMP DP  RH WIND       PRES   REMARKS
LAS VEGAS, NV  PTSUNNY   79  51  37 SE6       29.89R
ELY            PTSUNNY   58  48  69 SW12      30.11R
ELKO           SUNNY     64  46  52 NE6       29.99R
POCATELLO, ID  SUNNY     63  54  72 NE3       29.97R
BURLEY         MOSUNNY   62  52  69 E3        29.92R
EVANSTON, WY   PTSUNNY   55  52  89 SW14      30.12R
ROCK SPRINGS   CLOUDY    57  49  74 W15       30.08R

$$



USA.gov is the U.S. government's official web portal to all federal, state and local government web resources and services.